Regional Weather Roundup
Issued by NWS Wakefield, VA

Home | Current Version | Previous Version | Text Only | Print | Product List | Glossary Off
Versions: 1 2 3 4 5 6 7 8 9 10 11 12 13 14 15 16 17 18 19 20 21 22 23 24 25 26 27 28 29 30 31 32 33 34 35 36 37 38 39 40 41 42 43 44 45 46 47 48 49 50

000
ASUS41 KAKQ 210810
RWRAKQ

REGIONAL WEATHER ROUNDUP
NATIONAL WEATHER SERVICE WAKEFIELD VA
400 AM EDT THU AUG 21 2014

Note: "fair" indicates few or no clouds below 12,000 feet with no
significant weather and/or obstructions to visibility. * = Denotes
station may not report precipitation (e.g., rain,snow,etc.),
thunder or fog.

VAZ042-051-052>054-056-210900-
NORTHERN VIRGINIA

CITY           SKY/WX    TMP DP  RH WIND       PRES   REMARKS
WASH NATIONAL  PTCLDY    72  64  76 CALM      30.01S
DULLES         CLEAR     63  63 100 CALM      30.00S
FORT BELVOIR   CLEAR     64  64 100 CALM      30.00S FOG
QUANTICO       CLEAR     68  66  93 NW7       30.00S
FREDERICKSBRG* FOG       68  68 100 CALM      29.99S VSB 1
STAFFORD*      FOG       64  64 100 CALM      30.04S VSB 1/2
WARRENTON      FOG       67  67 100 CALM      30.00S VSB 3/4
CULPEPER*      CLOUDY   N/A N/A N/A CALM      30.01S FOG
MANASSAS*      CLEAR     64  64 100 CALM      30.01R
LEESBURG*      CLEAR     64  64 100 CALM      30.01F FOG
WINCHESTER     FOG       68  68 100 W3        30.00F VSB 1/2
$$

VAZ048-049-060>072-079>083-210900-
CENTRAL AND SOUTH CENTRAL VIRGINIA...AND NORTH CENTRAL NORTH CAROLINA

CITY           SKY/WX    TMP DP  RH WIND       PRES   REMARKS
RICHMOND       PTCLDY    72  69  90 N5        29.99R
CHESTERFIELD*  PTSUNNY  N/A N/A N/A NW3       30.00F
HANOVER        MOCLDY    68  67  96 CALM      30.01S FOG
TAPPAHANNOCK*  CLOUDY    71  68  90 CALM      30.00S
CHARLOTTSVILLE FOG       67  66  97 CALM      30.01R VSB 3/4
ORANGE*        FOG       66  64  94 CALM      30.02F VSB 1/4
LOUISA*        FOG       66  66 100 CALM      30.00S VSB 1/4
FARMVILLE*     FOG       70  68  94 NE3       29.99R VSB 1/2
SOUTH HILL*    CLOUDY    73  73 100 CALM      30.04S FOG
ROANOKE RAPIDS CLOUDY    72  72 100 CALM      29.98S FOG
RALEIGH        MOCLDY    72  70  93 CALM      29.99S FOG
$$

VAZ088>098-210900-
SOUTHEAST VIRGINIA

CITY           SKY/WX    TMP DP  RH WIND       PRES   REMARKS
NORFOLK        PTCLDY    75  71  87 SE6       29.98F
VIRGINIA BEACH MOCLDY    72  70  93 CALM      29.98F
NORFOLK NAVAL  MOCLDY    75  71  87 S5        29.99F
WEST POINT*    CLOUDY    75  71  88 CALM      29.99F
NEWPORT NEWS   PTCLDY    75  70  84 E3        29.98F
LANGLEY AFB    PTCLDY    75  75 100 SE2       29.98S
FORT EUSTIS    PTCLDY    75 N/A N/A S6        29.97S
WILLIAMSBURG*  MOCLDY    75  73  94 CALM      29.99S
FRANKLIN*      MOCLDY    72  72 100 CALM      30.00R
WAKEFIELD      CLOUDY    74  71  91 CALM      29.99S
$$

VAZ020-022-025-037-045-210900-
WESTERN AND SOUTHWEST VIRGINIA

CITY           SKY/WX    TMP DP  RH WIND       PRES   REMARKS
STAUNTON*      FOG       64  63  95 CALM      30.06S VSB<1/4
HOT SPRINGS VA CLOUDY    64  64 100 W12       30.19R
LYNCHBURG      MOCLDY    70  69  97 CALM      30.04R
DANVILLE       CLOUDY    71  68  90 W5        30.01R
MARTINSVILLE   CLOUDY    68  68 100 CALM      30.06S FOG
ROANOKE        MOCLDY    67  65  93 W3        30.07R
BLACKSBURG     MOCLDY    66  66 100 CALM      30.13R FOG
DUBLIN*        MOCLDY    67  66  95 SW3       30.13R
MARION*        CLOUDY    67  64  90 W15       30.18S
HILLSVILLE*    MOCLDY    65  62  89 NW14      30.15S
RICHLANDS*     PTSUNNY   67  64  91 CALM      30.17S
WISE*          MOCLDY    63  63 100 SW6       30.17S
ABINGDON*      CLOUDY    68  67  97 W5        30.16F
$$

MDZ021>025-VAZ099-100-210900-
SOUTHERN MARYLAND AND THE DELMARVA PENINSULA

CITY           SKY/WX    TMP DP  RH WIND       PRES   REMARKS
PATUXENT RIVER CLOUDY    74  71  91 S3        29.99
BAY BRIDGE APT   N/A     72  68  88 SE3       30.00S
LEONARDTOWN    CLOUDY    72  68  88 CALM      30.01S
DOVER          CLEAR     67  65  94 SE2       29.99F
GEORGETOWN     CLEAR     65  63  93 CALM      30.02S
EASTON         PTCLDY    69  69 100 CALM      30.04S
CAMBRIDGE      CLOUDY    72  68  88 CALM      29.99F
SALISBURY      CLOUDY    70  65  84 CALM      30.01S
OCEAN CITY     CLOUDY    71  68  90 CALM      30.01S
WALLOPS ISLAND MOCLDY    75  71  87 NW3       30.01R
ACCOMACK*      PTCLDY    72  68  88 S3        29.99S
$$

NCZ012>017-030>032-210900-
EASTERN NORTH CAROLINA

CITY           SKY/WX    TMP DP  RH WIND       PRES   REMARKS
ELIZABETH CITY PTCLDY    75  72  90 SE3       29.99S
AHOSKIE*       MOCLDY    72  71  96 CALM      29.99S
EDENTON*       PTCLDY    75  74  97 S3        29.98F
CURRITUCK*     PTCLDY    73  68  84 CALM      29.99F
KILL DEVIL HLS CLOUDY    75  73  93 CALM      29.99S
MANTEO         MOCLDY    75  73  94 CALM      30.00S
CAPE HATTERAS  CLEAR     78  74  87 S5        30.00S
GOLDSBORO      PTCLDY    74  74  98 CALM      29.96F
WASHINGTON     MOCLDY    75  73  95 CALM      29.99R
GREENVILLE     PTCLDY    73  73 100 SW3       30.00R FOG
NEW BERN       PTCLDY    77  74  90 CALM      29.99F FOG
WILMINGTON     CLEAR     75  73  93 CALM      29.99F
$$

VAZ048-210900-
ELSEWHERE

CITY           SKY/WX    TMP DP  RH WIND       PRES   REMARKS
HARRISBURG PA  PTCLDY    68  65  90 S5        30.00S
BALTIMORE      PTCLDY    67  64  90 CALM      30.00S
ANNAPOLIS      PTCLDY    72  69  90 S5        29.99S
ANDREWS AFB    MOCLDY    67  66  99 CALM      30.01R
WILMINGTON DE  MOCLDY    70  65  84 CALM      30.02S
PHILADELPHIA   MOCLDY    70  64  81 SE6       30.02S
WILDWOOD NJ*   PTCLDY    66  61  82 CALM      30.02F
ATLANTIC CITY  MOCLDY    66  64  93 CALM      30.02F
HENDERSON NC   PTCLDY    69  67  94 CALM      30.00R FOG
GREENSBORO     CLOUDY    73  70  90 W5        30.03S
ROCKY MOUNT    PTCLDY    73  71  93 CALM      29.98F FOG
FAYETTEVILLE   CLEAR     76  73  91 SW6       29.98S
CHARLOTTE      PTCLDY    71  67  87 CALM      30.04S
$$

VAZ100-210900-
MARINE

STATION/POSITION TIME  TEMP    WIND        PRES    WAVE   SWELL
                       AIR SEA DIR/SP/G            HT/PER HT/PER
                 (UTC) (F)     (DEG/KT/KT) (MB)    (FT/S) (FT/S)
44066 TX TWR #4  0800   70 73   10/  8/ 10 1016.4S   3/ 6   3/ 6
CAPE MAY NJ      0800   70 79  150/  4/  5 1015.8F
LEWES DE         0800   71 74  150/  3/  3 1016.0F
15NM E FENWICK I 0800   74 75              1016.2R   2/ 7
OCEAN-CITY-INLET 0800   72 76  200/  6/  8 1015.7R
WACHAPREAGUE VA  0800   76 80  190/  7/  9 1015.7S
THOMAS POINT MD  0800   74 78  170/  9/ 10 1016.3R
GOOSES REEF MD   0800   74     160/  8/ 10 1016.1S
COVE POINT MD    0800   75     170/ 10/ 11 1015.6R
SOLOMONS ISLAND  0800      80                N/A
BISHOPS HEAD MD  0800   75 78  120/  6/  8 1015.3S
PINEY POINT MD   0800          180/  6/  7   N/A
POTOMAC MD       0800   76     160/  6/  8 1014.8F
CAMBRIDGE MD     0800   71 78  120/  2/  3 1015.4S
LEWISETTA VA     0800   75 80  170/  3/  4 1015.2S
RAPPAHANNOCK LGT 0800          150/  9/ 10 1015.8F
STINGRAY PT      0800   77     180/ 10/ 12 1016.0S
YORK RVR RNG VA  0800   77     180/ 11/ 13 1014.7R
YORKTOWN VA      0800   74 80  110/  2/  2 1014.9S
JAMESTOWN VA     0800   73     200/  4/  6   N/A
DOMINION TERM VA 0800   76     170/  8/ 10 1015.0F
KIPTOPEKE VA     0800      81  150/  5/  6   N/A
CHES BAY BRIDGE  0800   76 79  140/  8/  9 1014.8F
CAPE HENRY VA    0800   75     150/  7/  9 1014.1F
CHESAPEAKE LGHT  0700   76     170/  9/ 10 1016.6F
WILLOUBY STN VA  0800   75     130/  6/  7 1013.9F
S CRANEY ISL VA  0800          160/  8/ 10 1014.8F
CAPE HENRY BUOY  0800      78                N/A     3/ 6
1ST LANDING BUOY 0800   77     160/ 10/ 12 1015.0S
CAPE CHARLES BUO 0800      77                N/A     3/ 6   2/ 6
OFFSHORE WE BUOY 0800      77                N/A     2/ 6   2/ 6
64NM E OF VA BCH 0800   76 78  170/  2/  4 1015.7F   3/ 6   2/ 6
DUCK PIER NC     0800   78 78  140/ 10/ 11 1014.9S
44056 DUCK FRF   0800                        N/A     2/ 6
OREGON INLET NC  0800   76 81  120/  4/  5 1015.7S
HATTERAS NC      0800   80 81  190/  3/  4 1016.1F
DIAMOND SHLS NC  0800   78     200/  4/  6 1015.6F   2/ 7   2/ 7
CAPE LOOKOUT NC  0700   80     210/  4/  5 1015.8F
$$


USA.gov is the U.S. government's official web portal to all federal, state and local government web resources and services.